294P/LINEAR (2025)

Japanese version
Home page
Updated on September 5, 2024

---------------------------------------------------------------------

* Profile

* Orbital Elements

Epoch 2025 July 24.0 TT = JDT 2460880.5                                         
T 2025 Aug. 11.19204 TT                                 Rudenko                 
q   1.2730403            (2000.0)            P               Q                  
n   0.17298545     Peri.  237.58565     -0.96120464     +0.14474021             
a   3.1900414      Node   309.60053     +0.01104736     -0.83038382             
e   0.6009330      Incl.   17.74299     -0.27561495     -0.53806411             
P   5.70                                                                        
From 239 observations 2008 Jan. 13-2020 Aug. 15, mean residual 1".0.            

* Magnitudes Graph

        H = 16.5  G = 0.15

---------------------------------------------------------------------

The orbital elements are published on M.P.E.C. 2020-S188.
The magnitudes graphs are made with Comet for Windows.

---------------------------------------------------------------------

Copyright(C) Seiichi Yoshida (comet@aerith.net). All rights reserved.